OK1FPA-13 Weather Reports


time (UTC)temp
F
wind
direction
speed
knots
gust
knots
rain 1hr
in
rain 24hr
in
rain mn
in
humidity
%
barometer
mb
20260506153442 65 0.0 0.0 0.00 0.00 0.00 78 1003.9
20260506152442 65 0.0 0.0 0.00 0.00 0.00 78 1003.9
20260506151442 65 0.0 0.0 0.00 0.00 0.00 78 1003.7
20260506150442 64 0.0 0.0 0.00 0.00 0.00 75 1003.6
20260506145443 65 0.0 0.0 0.00 0.00 0.00 82 1003.8
20260506144443 65 0.0 0.0 0.00 0.00 0.00 82 1004.1
20260506143442 67 0.0 0.0 0.00 0.00 0.00 73 1004.2
20260506142442 67 0.0 0.0 0.00 0.00 0.00 68 1004.0
20260506141442 69 0.0 0.0 0.00 0.00 0.00 64 1004.0
20260506140443 68 0.0 0.0 0.00 0.00 0.00 70 1004.1
20260506135442 68 0.0 0.0 0.00 0.00 0.00 59 1004.1
20260506134442 68 0.0 0.0 0.00 0.00 0.00 61 1004.6
20260506133442 72 0.0 0.0 0.00 0.00 0.00 52 1004.8
20260506132445 72 0.0 0.0 0.00 0.00 0.00 40 1004.2
20260506131441 72 0.0 0.0 0.00 0.00 0.00 39 1004.2
20260506130441 72 0.0 0.0 0.00 0.00 0.00 39 1004.5
20260506125441 73 0.0 0.0 0.00 0.00 0.00 39 1004.6
20260506124441 75 0.0 0.0 0.00 0.00 0.00 37 1004.7
20260506123441 74 0.0 0.0 0.00 0.00 0.00 36 1004.8
20260506122441 74 0.0 0.0 0.00 0.00 0.00 36 1004.9
20260506121441 76 0.0 0.0 0.00 0.00 0.00 37 1005.0
20260506120441 79 0.0 0.0 0.00 0.00 0.00 32 1005.0
20260506115441 80 0.0 0.0 0.00 0.00 0.00 32 1005.0
20260506114441 78 0.0 0.0 0.00 0.00 0.00 34 1005.2
20260506113441 76 0.0 0.0 0.00 0.00 0.00 35 1005.3
20260506112441 78 0.0 0.0 0.00 0.00 0.00 35 1005.4
20260506111441 78 0.0 0.0 0.00 0.00 0.00 36 1005.5
20260506110441 77 0.0 0.0 0.00 0.00 0.00 35 1005.6
20260506105441 76 0.0 0.0 0.00 0.00 0.00 36 1005.7
20260506104441 75 0.0 0.0 0.00 0.00 0.00 35 1005.7
20260506103441 74 0.0 0.0 0.00 0.00 0.00 38 1005.9
20260506102441 75 0.0 0.0 0.00 0.00 0.00 36 1006.0
20260506101441 75 0.0 0.0 0.00 0.00 0.00 38 1006.1
20260506100441 74 0.0 0.0 0.00 0.00 0.00 38 1006.2
20260506095441 73 0.0 0.0 0.00 0.00 0.00 41 1006.2
20260506094441 73 0.0 0.0 0.00 0.00 0.00 40 1006.3
20260506093441 73 0.0 0.0 0.00 0.00 0.00 40 1006.1
20260506092441 72 0.0 0.0 0.00 0.00 0.00 43 1006.0
20260506091441 72 0.0 0.0 0.00 0.00 0.00 42 1006.0
20260506090441 71 0.0 0.0 0.00 0.00 0.00 43 1006.1
20260506085441 71 0.0 0.0 0.00 0.00 0.00 44 1006.1
20260506084441 71 0.0 0.0 0.00 0.00 0.00 44 1006.0
20260506083441 70 0.0 0.0 0.00 0.00 0.00 46 1005.9
20260506082441 69 0.0 0.0 0.00 0.00 0.00 48 1006.0
20260506081441 69 0.0 0.0 0.00 0.00 0.00 49 1006.0
20260506080441 69 0.0 0.0 0.00 0.00 0.00 52 1006.1
20260506073441 67 0.0 0.0 0.00 0.00 0.00 56 1006.2
20260506072441 66 0.0 0.0 0.00 0.00 0.00 60 1006.2
20260506071442 65 0.0 0.0 0.00 0.00 0.00 61 1006.2
20260506070441 65 0.0 0.0 0.00 0.00 0.00 62 1006.3
20260506062441 64 0.0 0.0 0.00 0.00 0.00 68 1006.0
20260506061441 62 0.0 0.0 0.00 0.00 0.00 71 1006.2
20260506060441 62 0.0 0.0 0.00 0.00 0.00 69 1006.1
20260506050441 57 0.0 0.0 0.00 0.00 0.00 10 1005.8
20260506044441 56 0.0 0.0 0.00 0.00 0.00 10 1005.9
20260506043441 56 0.0 0.0 0.00 0.00 0.00 10 1005.7
20260506042441 56 0.0 0.0 0.00 0.00 0.00 10 1005.7
20260506041441 55 0.0 0.0 0.00 0.00 0.00 10 1005.4
20260506040441 55 0.0 0.0 0.00 0.00 0.00 10 1005.4
20260506035441 55 0.0 0.0 0.00 0.00 0.00 10 1005.2
20260506034441 55 0.0 0.0 0.00 0.00 0.00 10 1005.1
20260506032441 56 0.0 0.0 0.00 0.00 0.00 10 1005.2
20260506031441 56 0.0 0.0 0.00 0.00 0.00 10 1005.3
20260506030441 56 0.0 0.0 0.00 0.00 0.00 10 1005.2
20260506025441 56 0.0 0.0 0.00 0.00 0.00 10 1005.2
20260506024441 57 0.0 0.0 0.00 0.00 0.00 10 1005.2
20260506023441 57 0.0 0.0 0.00 0.00 0.00 99 1005.1
20260506022441 57 0.0 0.0 0.00 0.00 0.00 97 1005.0
20260506021441 58 0.0 0.0 0.00 0.00 0.00 97 1004.9
20260506020441 58 0.0 0.0 0.00 0.00 0.00 95 1004.5
20260506015441 58 0.0 0.0 0.00 0.00 0.00 95 1004.4
20260506014441 58 0.0 0.0 0.00 0.00 0.00 96 1004.6
20260506013442 58 0.0 0.0 0.00 0.00 0.00 97 1005.0
20260506012443 58 0.0 0.0 0.00 0.00 0.00 93 1005.0
20260506011457 58 0.0 0.0 0.00 0.00 0.00 90 1004.9
20260506010457 59 0.0 0.0 0.00 0.00 0.00 90 1004.8
20260506005457 59 0.0 0.0 0.00 0.00 0.00 91 1004.7
20260506004457 58 0.0 0.0 0.00 0.00 0.00 92 1004.4
20260506003457 58 0.0 0.0 0.00 0.00 0.00 90 1004.5
20260506002457 59 0.0 0.0 0.00 0.00 0.00 89 1004.6
20260506001457 59 0.0 0.0 0.00 0.00 0.00 92 1004.5
20260506000457 60 0.0 0.0 0.00 0.00 0.00 94 1004.7
20260505235458 60 0.0 0.0 0.00 0.00 0.00 89 1004.7
20260505234457 60 0.0 0.0 0.00 0.00 0.00 76 1004.7
20260505233457 61 0.0 0.0 0.00 0.00 0.00 63 1004.6
20260505232457 61 0.0 0.0 0.00 0.00 0.00 58 1004.4
20260505231457 61 0.0 0.0 0.00 0.00 0.00 56 1004.4
20260505230457 61 0.0 0.0 0.00 0.00 0.00 56 1004.5
20260505225457 61 0.0 0.0 0.00 0.00 0.00 56 1004.4
20260505224457 62 0.0 0.0 0.00 0.00 0.00 55 1004.5
20260505223457 62 0.0 0.0 0.00 0.00 0.00 53 1004.2
20260505222457 62 0.0 0.0 0.00 0.00 0.00 53 1004.5
20260505221457 62 0.0 0.0 0.00 0.00 0.00 54 1003.4
20260505220457 61 0.0 0.0 0.00 0.00 0.00 57 1003.3
20260505215457 62 0.0 0.0 0.00 0.00 0.00 57 1003.1
20260505214457 62 0.0 0.0 0.00 0.00 0.00 57 1003.2
20260505213457 61 0.0 0.0 0.00 0.00 0.00 66 1003.2
20260505212457 61 0.0 0.0 0.00 0.00 0.00 66 1003.2
20260505211457 61 0.0 0.0 0.00 0.00 0.00 67 1003.1
20260505210457 62 0.0 0.0 0.00 0.00 0.00 64 1003.1
20260505205458 63 0.0 0.0 0.00 0.00 0.00 63 1003.1
20260505204458 63 0.0 0.0 0.00 0.00 0.00 64 1003.2
20260505203457 63 0.0 0.0 0.00 0.00 0.00 64 1003.3
20260505202457 62 0.0 0.0 0.00 0.00 0.00 66 1003.3
20260505201457 64 0.0 0.0 0.00 0.00 0.00 61 1003.3
20260505200458 64 0.0 0.0 0.00 0.00 0.00 59 1003.3
20260505195457 64 0.0 0.0 0.00 0.00 0.00 59 1003.3
20260505194457 65 0.0 0.0 0.00 0.00 0.00 57 1003.1
20260505193457 66 0.0 0.0 0.00 0.00 0.00 55 1003.3
20260505192457 66 0.0 0.0 0.00 0.00 0.00 56 1003.3
20260505191457 66 0.0 0.0 0.00 0.00 0.00 56 1003.2
20260505190457 66 0.0 0.0 0.00 0.00 0.00 56 1003.0
20260505185457 66 0.0 0.0 0.00 0.00 0.00 56 1003.0
20260505184458 66 0.0 0.0 0.00 0.00 0.00 56 1003.0
20260505183458 66 0.0 0.0 0.00 0.00 0.00 54 1003.0
20260505182458 67 0.0 0.0 0.00 0.00 0.00 54 1003.0
20260505181457 68 0.0 0.0 0.00 0.00 0.00 52 1003.0
20260505180457 70 0.0 0.0 0.00 0.00 0.00 48 1003.1
20260505175457 71 0.0 0.0 0.00 0.00 0.00 45 1003.2
20260505174457 72 0.0 0.0 0.00 0.00 0.00 40 1003.1
20260505173457 74 0.0 0.0 0.00 0.00 0.00 38 1002.9
20260505172457 74 0.0 0.0 0.00 0.00 0.00 35 1002.7
20260505171457 74 0.0 0.0 0.00 0.00 0.00 34 1002.7
20260505170457 74 0.0 0.0 0.00 0.00 0.00 34 1002.7
20260505165457 74 0.0 0.0 0.00 0.00 0.00 34 1002.7
20260505164457 75 0.0 0.0 0.00 0.00 0.00 34 1002.8
20260505163458 75 0.0 0.0 0.00 0.00 0.00 33 1002.8
20260505162457 76 0.0 0.0 0.00 0.00 0.00 32 1002.8
20260505161457 76 0.0 0.0 0.00 0.00 0.00 32 1002.8
20260505160457 76 0.0 0.0 0.00 0.00 0.00 32 1002.8